{"data":{"norad_id":39151,"epoch":"2026-05-24T08:22:23.610432Z","epoch_age_seconds":145365,"freshness":"FRESH","line1":"1 39151U 13018B   26144.34888438  .00002263  00000+0  22047-3 0  9995","line2":"2 39151  98.1194 287.7180 0011472 239.1251 120.8840 14.93521589707143","mean_motion":14.93521589,"eccentricity":0.0011472,"inclination_deg":98.1194,"raan_deg":287.718,"arg_perigee_deg":239.1251,"mean_anomaly_deg":120.884,"bstar":0.00022047,"rev_number":70714,"period_min":96.41641678338,"perigee_km":578.97501969019,"apogee_km":594.95575060267,"semimajor_km":6965.1023851464,"source":"CELESTRAK","updated_at":"2026-05-25T13:38:25.491880Z"}}